TITAN 3C TRANSTAGE R/B, 2222

Orbit data source: Space-Track

TITAN 3C TRANSTAGE R/B, 2222 is space debris in GEO originally from a launch on Thu, 16 Jun 1966 UTC launched from the Air Force Eastern Test Range (AFETR). Debris objects in space refer to the collection of defunct objects orbiting the Earth. Examples of debris include non-operational satellites, rocket bodies, and fragments generated from explosions, collisions, or faulty payload assembly.

Loading next visibility...
TITAN 3C TRANSTAGE R/B details
Identifier
2222, 1966-053J
Orbit
GEO
Last TLE update21 hours ago
Origin
Flag of USUSAF SSD (US)
ManufacturerMartin Marietta
MissionSpacecraft
Bus & MotorTRANSTAGE, Unknown motor
Mass2,050 kg wet, 2,050 kg dry
Launch date (UTC)
1966-06-16 (59 years ago)
Launch vehicleUnknown
Launch site
Air Force Eastern Test Range (AFETR)
Object type
Payload
Rocket body
Debris
Shape & HBRCyl + 2 Nozzle, 4.6 m
Radar Cross Section14.974 m², Large (>1 m²)

Expand to show TLE details & history

TLE from 21 hours ago
0 TITAN 3C TRANSTAGE R/B
1 02222U 66053J   24355.65685564 -.00000084  00000-0  00000-0 0  9995
2 02222   7.3297  52.8835 0161793 155.2652 267.9318  1.06720778124586
Epoch: 2024-12-20T15:45Z
Definitive object data (Epoch: 2024-12-20T15:45:52.327Z)
Latitude6.4514°
Longitude147.85426°
Altitude34,105.264 km
Speed3.137 km/s
True Right ascension07h 36m 09s
True Declination6° 26' 41"
Sunlit
Object was in daylight at TLE epoch
Visualization TLE readout
Latitude4.26309°
Longitude121.9167°
Altitude34,387.999 km
Speed3.115 km/s
Apparent Right ascension05h 24m 47s
Apparent Declination-1° 28' 13"
Sunlit
Object is in daylight
Visualization observer readout
Local Sidereal Time11:38:59
Azimuth271.152° WNW
Elevation-3.667°
Doppler factor1
Orbital elements
Apogee altitude34,725.906 km
Perigee altitude33,417.014 km
Semi-major axis40,449.597 km
Eccentricity0.0161793
Inclination7.3297°
RAAN52.8835°
Arg. of periapsis155.2652°
True anomaly266.08067°
Mean anomaly267.9318°
Eccentric anomaly267.00606°
Mean motion0.26679 °/min
BSTARUnknown
Orbital period1349.37 mins
Loading historical data...
2222 neighbors
Authenticating...
Loading maneuver chart data...
Loading historical data...
Loading historical data...
Loading historical data...
Loading historical data...
Loading historical data...
Loading historical data...
Loading historical data...

TITAN 3C TRANSTAGE R/B Visibility forecast

Observer location: undefined°, undefined

Span
Click to sort rows by Start time (UTC) header in descending order
Start Az.
Max El. time (UTC)
Max El. Az.
Max El.
End time (UTC)
End Az.
197 mins2024-12-22 09:20:09.744Z254.723° W2024-12-22 12:37:09.744Z257.44° W14.897°2024-12-22 12:37:09.744Z257.44° W
|